This is the latest recevied weather packets stored in our database for station/object OE3CJB-13. If no packets are shown the sender has not sent any weather packets the latest 10 day(s).
| Time | Temp. | Humidity | Pressure | Rain* | Wind** | Luminosity | Snow |
|---|---|---|---|---|---|---|---|
| 1777575639 | 8.89° C | 14% | 768.8 hPa | 0 mm | - | - | - |
| 1777574724 | 10° C | 12% | 768 hPa | 0 mm | - | - | - |
| 1777573865 | 10.56° C | - | 767.9 hPa | 0 mm | - | - | - |
| 1777572948 | 11.67° C | - | 767.8 hPa | 0 mm | - | - | - |
| 1777572087 | 12.22° C | - | 767.9 hPa | 0 mm | - | - | - |
| 1777571125 | 12.78° C | - | 767.8 hPa | 0 mm | - | - | - |
| 1777570265 | 13.33° C | - | 767.8 hPa | 0 mm | - | - | - |
| 1777569397 | 13.89° C | - | 767.1 hPa | 0 mm | - | - | - |
| 1777568439 | 13.89° C | - | 767.1 hPa | 0 mm | - | - | - |
| 1777566666 | 14.44° C | - | 763.1 hPa | 0 mm | - | - | - |
| 1777565748 | 14.44° C | - | 760.7 hPa | 0 mm | - | - | - |
| 1777564838 | 15° C | - | 760.8 hPa | 0 mm | - | - | - |
| 1777563924 | 15° C | - | 758.4 hPa | 0 mm | - | - | - |
| 1777563065 | 15.56° C | - | 757 hPa | 0 mm | - | - | - |
| 1777562292 | 15.56° C | - | 756.3 hPa | 0 mm | - | - | - |
| 1777561238 | 15.56° C | - | 756.4 hPa | 0 mm | - | - | - |
| 1777560372 | 15.56° C | - | 756.4 hPa | 0 mm | - | - | - |
| 1777559465 | 15.56° C | - | 757.3 hPa | 0 mm | - | - | - |
| 1777558548 | 15.56° C | - | 758 hPa | 0 mm | - | - | - |
| 1777557686 | 15° C | - | 758 hPa | 0 mm | - | - | - |
| 1777556772 | 15° C | - | 758.8 hPa | 0 mm | - | - | - |
| 1777555908 | 15° C | - | 759 hPa | 0 mm | - | - | - |
| 1777554948 | 15° C | - | 758.1 hPa | 0 mm | - | - | - |
| 1777554038 | 14.44° C | - | 758.3 hPa | 0 mm | - | - | - |
| 1777553124 | 14.44° C | - | 758.4 hPa | 0 mm | - | - | - |
* Rain latest hour (hover to see other rain measurements)
** Current wind speed in m/s (hover to see current wind gust speed)